Location: Runa
(38.1429°N, 80.8510°W)
Time: 03:15:52
(UTC+00:00)

Hubble Space Telescope - Pass Details

Date: 26 April 2026
Orbit: 473 x 476 km, 28.5° (Epoch: 11 May)

Event Time Altitude Azimuth Distance (km) Brightness Sun altitude
Rises 01:16:06 0° 236° (SW) 2,506 4.6 -12.9°
Reaches altitude 10° 01:18:51 10° 216° (SW) 1,630 3.3 -13.4°
Maximum altitude 01:21:21 17° 173° (S) 1,254 2.3 -13.8°
Enters shadow 01:21:52 17° 163° (SSE) 1,273 2.3 -13.9°
